Live-Position
3D-Globus wird geladen...
Über Starlink 3891
Group: 3 satellites
Beschreibung wird geladen...
Nächste Überflüge
Passes for default location (London). Set your location on the main map for personalized predictions.
Höhenverlauf
Loading altitude history...
No altitude history available
Zweizeiliger Elementsatz
1 52650U 22052BE 26106.61781987 -.00000226 00000-0 38974-5 0 9998
2 52650 53.2167 78.9613 0001543 81.4305 278.6861 15.08835743217004
Epoch: 16. Apr. 2026 •
Age: 9 hours
Aktueller Status
Höhe 540.1 km
Geschwindigkeit 7.60 km/s
Subsatellitenpunkt 22.54°N,
42.59°E
Startdatum 14. Mai 2022
Alter 3.9 years
Typ internet
Startgruppe
Falcon 9 •
Group 4-15 •
49 satellites
Starlink 4019
52598
Starlink 4024 52599
Starlink 4026 52600
Starlink 4027 52601
Starlink 4012 52602
Starlink 4016 52603
Starlink 4013 52604
Starlink 4000 52605
Starlink 3928 52606
Starlink 3947 52607
Starlink 3979 52608
Starlink 3997 52609
Starlink 3998 52610
Starlink 3980 52611
Starlink 4002 52612
Starlink 3982 52614
Starlink 4011 52615
Starlink 3996 52617
Starlink 3983 52618
Starlink 3741 52619
...and 28 more
Technische Details
Klassifizierung Payload
Masse 297.00 kg
Trockenmasse 275.00 kg
Gesamtmasse 297.00 kg
Länge 0.20 m
Durchmesser 2.80 m
Spannweite 9.00 m
Form Box + pan
Hersteller SPXS
Bus-Typ Starlink
Phasenstatus In Orbit
Besitzer/Staat SPXS/US
Most Searched
Loading...